DW5430 Weather Reports


time (UTC)temp
C
wind
direction
speed
KPH
gust
KPH
rain 1hr
cm
rain 24hr
cm
rain mn
cm
humidity
%
barometer
mb
20260906231513 33 293 9.7 20.9 0.00 0.00 0.00 18 1001.4
20260906230012 33 297 12.9 22.5 0.00 0.00 0.00 17 1001.5
20260906224511 34 308 9.7 19.3 0.00 0.00 0.00 17 1001.6
20260906223010 34 290 6.4 12.9 0.00 0.00 0.00 16 1001.6
20260906221508 33 45 4.8 9.7 0.00 0.00 0.00 17 1001.8
20260906220006 34 216 12.9 25.7 0.00 0.00 0.00 16 1002.1
20260906214503 33 335 6.4 12.9 0.00 0.00 0.00 17 1002.3
20260906213001 34 263 8.0 12.9 0.00 0.00 0.00 15 1002.7
20260906211559 33 204 3.2 14.5 0.00 0.00 0.00 17 1002.9
20260906210056 33 239 8.0 22.5 0.00 0.00 0.00 16 1003.2
20260906204612 33 243 3.2 11.3 0.00 0.00 0.00 16 1003.5
20260906203051 33 356 1.6 14.5 0.00 0.00 0.00 15 1003.8
20260906201614 32 314 11.3 20.9 0.00 0.00 0.00 16 1004.0
20260906200047 32 340 6.4 17.7 0.00 0.00 0.00 16 1004.2
20260906194555 33 328 3.2 9.7 0.00 0.00 0.00 15 1004.4
20260906193045 32 274 4.8 11.3 0.00 0.00 0.00 14 1004.6
20260906191538 31 342 3.2 11.3 0.00 0.00 0.00 16 1004.9
20260906190036 32 65 9.7 14.5 0.00 0.00 0.00 16 1005.1
20260906184532 31 359 6.4 14.5 0.00 0.00 0.00 20 1005.4
20260906183030 30 6 6.4 14.5 0.00 0.00 0.00 21 1005.6
20260906181540 31 309 0.0 11.3 0.00 0.00 0.00 22 1005.9
20260906180030 30 60 9.7 12.9 0.00 0.00 0.00 20 1006.1
20260906174525 30 78 1.6 9.7 0.00 0.00 0.00 23 1006.2
20260906173024 29 77 3.2 12.9 0.00 0.00 0.00 26 1006.4
20260906171518 28 85 6.4 17.7 0.00 0.00 0.00 28 1006.5
20260906170014 27 47 8.0 16.1 0.00 0.00 0.00 30 1006.7
20260906164519 26 73 6.4 17.7 0.00 0.00 0.00 31 1006.7
20260906163014 26 98 11.3 20.9 0.00 0.00 0.00 33 1006.8
20260906161506 25 65 9.7 14.5 0.00 0.00 0.00 35 1006.8
20260906160005 25 47 16.1 22.5 0.00 0.00 0.00 37 1006.8
20260906154504 25 84 12.9 27.4 0.00 0.00 0.00 38 1007.0
20260906153004 24 30 14.5 24.1 0.00 0.00 0.00 39 1007.0
20260906151502 23 360 16.1 22.5 0.00 0.00 0.00 40 1006.9
20260906150002 22 40 14.5 25.7 0.00 0.00 0.00 42 1007.0
20260906144502 22 41 14.5 20.9 0.00 0.00 0.00 43 1007.0
20260906143105 21 41 12.9 19.3 0.00 0.00 0.00 43 1006.9
20260906141602 21 45 12.9 19.3 0.00 0.00 0.00 44 1006.9
20260906140108 20 43 9.7 16.1 0.00 0.00 0.00 45 1006.9
20260906134617 20 50 0.0 8.0 0.00 0.00 0.00 46 1006.8
20260906133100 20 74 0.0 8.0 0.00 0.00 0.00 47 1006.8
20260906131554 19 105 3.2 6.4 0.00 0.00 0.00 45 1006.8
20260906124551 20 74 1.6 6.4 0.00 0.00 0.00 46 1006.6
20260906123049 20 75 4.8 4.8 0.00 0.00 0.00 44 1006.4
20260906121550 20 114 0.0 3.2 0.00 0.00 0.00 41 1006.4
20260906120045 20 72 0.0 0.0 0.00 0.00 0.00 41 1006.5
20260906114542 20 12 0.0 0.0 0.00 0.00 0.00 40 1006.4
20260906113042 20 11 0.0 0.0 0.00 0.00 0.00 40 1006.3
20260906111541 20 8 0.0 0.0 0.00 0.00 0.00 40 1006.2
20260906110037 21 37 0.0 0.0 0.00 0.00 0.00 39 1006.2
20260906104535 21 34 0.0 0.0 0.00 0.00 0.00 38 1006.1
20260906103033 21 11 0.0 4.8 0.00 0.00 0.00 37 1006.1
20260906101532 21 77 0.0 0.0 0.00 0.00 0.00 37 1006.0
20260906100038 22 18 0.0 0.0 0.00 0.00 0.00 37 1005.9
20260906094529 22 18 0.0 0.0 0.00 0.00 0.00 36 1005.9
20260906093043 22 338 0.0 0.0 0.00 0.00 0.00 36 1005.7
20260906091525 22 29 0.0 0.0 0.00 0.00 0.00 35 1005.7
20260906090023 22 25 0.0 1.6 0.00 0.00 0.00 34 1005.6
20260906084522 23 127 0.0 0.0 0.00 0.00 0.00 34 1005.7
20260906083022 23 139 0.0 0.0 0.00 0.00 0.00 34 1005.8
20260906081541 23 285 0.0 0.0 0.00 0.00 0.00 35 1005.8
20260906080016 23 285 0.0 0.0 0.00 0.00 0.00 34 1005.9
20260906074515 23 294 0.0 6.4 0.00 0.00 0.00 33 1005.9
20260906073031 24 329 4.8 11.3 0.00 0.00 0.00 32 1006.0
20260906071513 24 298 3.2 4.8 0.00 0.00 0.00 33 1005.9
20260906070014 24 243 0.0 0.0 0.00 0.00 0.00 32 1006.0
20260906064509 25 258 0.0 1.6 0.00 0.00 0.00 32 1005.9
20260906063011 25 40 0.0 4.8 0.00 0.00 0.00 32 1005.9
20260906061506 25 91 0.0 0.0 0.00 0.00 0.00 31 1006.0
20260906060002 25 324 0.0 6.4 0.00 0.00 0.00 30 1005.8
20260906054504 26 318 0.0 4.8 0.00 0.00 0.00 30 1005.6
20260906053002 26 101 0.0 0.0 0.00 0.00 0.00 29 1005.7
20260906051601 26 122 1.6 4.8 0.00 0.00 0.00 30 1005.7
20260906050114 26 105 0.0 1.6 0.00 0.00 0.00 30 1005.7
20260906044559 26 130 0.0 8.0 0.00 0.00 0.00 30 1005.7
20260906043110 26 139 0.0 4.8 0.00 0.00 0.00 29 1005.8
20260906041558 26 106 0.0 4.8 0.00 0.00 0.00 29 1005.8
20260906040114 27 165 0.0 3.2 0.00 0.00 0.00 29 1005.8
20260906034558 27 274 0.0 4.8 0.00 0.00 0.00 28 1005.7
20260906033058 27 301 0.0 6.4 0.00 0.00 0.00 29 1005.6
20260906031606 27 228 0.0 0.0 0.00 0.00 0.00 29 1005.4
20260906030106 27 293 0.0 3.2 0.00 0.00 0.00 29 1005.2
20260906024554 27 268 0.0 3.2 0.00 0.00 0.00 29 1004.8
20260906023115 28 292 0.0 6.4 0.00 0.00 0.00 28 1004.7
20260906021554 28 309 4.8 9.7 0.00 0.00 0.00 27 1004.5
20260906020053 28 319 3.2 9.7 0.00 0.00 0.00 27 1004.3
20260906014613 29 318 4.8 12.9 0.00 0.00 0.00 27 1004.2
20260906013054 30 316 6.4 11.3 0.00 0.00 0.00 27 1004.2
20260906011556 30 318 8.0 14.5 0.00 0.00 0.00 26 1004.1
20260906010051 30 314 3.2 14.5 0.00 0.00 0.00 25 1004.1
20260906004602 31 320 8.0 19.3 0.00 0.00 0.00 26 1004.0
20260906003053 31 293 11.3 20.9 0.00 0.00 0.00 25 1004.1
20260906001549 31 302 8.0 27.4 0.00 0.00 0.00 25 1004.1
20260906000059 31 292 14.5 22.5 0.00 0.00 0.00 24 1003.9
20260905234554 31 319 12.9 25.7 0.00 0.00 0.00 25 1003.9
20260905233048 32 323 6.4 25.7 0.00 0.00 0.00 24 1004.0